Location: Cruquius
(52.3348°N, 4.6319°E)
Time: 20:47:29
(UTC+00:00)

Cosmos 2242 Rocket - Pass Details

Date: 27 September 2021
Orbit: 618 x 651 km, 82.5° (Epoch: 23 October)

Event Time Altitude Azimuth Distance (km) Brightness Sun altitude
Rises 04:27:41 0° 147° (SSE) 2,951 7.3 -11.2°
Reaches altitude 10° 04:30:24 10° 131° (SE) 2,051 6.8 -10.8°
Maximum altitude 04:33:42 20° 85° (E) 1,505 6.8 -10.3°
Drops below altitude 10° 04:37:01 10° 38° (NE) 2,070 7.0 -9.8°
Sets 04:39:46 0° 22° (NNE) 2,987 7.5 -9.4°
